Date String (YYYY-MM-DD hh:mm:ss) UTC,Instrument flags,Ambient pressure (hPa),Sample flow (lpm),Bypass flow (lpm),Sample temperature (°C),Ambient temperature (°C),ASC tube jacket temperature (°C),LED temperature (°C),Box temperature (°C),Sample RH (%),Span deviation,Mass concentration (μg/m³),Mass concentration (μg/m³),Mass concentration (μg/m³)
DateTimeUTC,F1_M11,P_M11,Q1_M11,Q2_M11,T1_M11,T2_M11,T3_M11,T4_M11,T5_M11,U1_M11,ZSPAN_M11,X0_M11,X2_M11,X1_M11
2023-01-10 12:00:00,,0818.0,4.99,0.00,22.0,20.8,00.0,30.9,23.8,16.5,0000.0,0001.90,0000.44,0000.36
2023-01-10 12:01:00,,0817.9,5.00,0.00,22.0,20.9,00.0,30.9,23.8,16.6,0000.0,0001.92,0000.45,0000.34
2023-01-10 12:02:00,,0817.9,5.00,0.00,22.0,20.9,00.0,30.9,23.8,16.7,0000.0,0001.91,0000.44,0000.33
2023-01-10 12:03:00,,0817.8,5.01,0.00,22.0,20.9,00.0,30.9,23.8,16.7,0000.0,0001.89,0000.43,0000.32
2023-01-10 12:04:00,,0817.9,4.99,0.00,22.0,20.9,00.0,30.9,23.8,16.8,0000.0,0001.25,0000.42,0000.32
2023-01-10 12:05:00,,0817.9,5.00,0.00,22.0,20.9,00.0,30.9,23.8,16.8,0000.0,0000.68,0000.41,0000.32
2023-01-10 12:06:00,,0817.8,5.00,0.00,22.0,20.9,00.0,30.9,23.8,16.8,0000.0,0000.65,0000.40,0000.31
2023-01-10 12:07:00,,0817.6,5.00,0.00,22.1,20.9,00.0,30.9,23.9,16.7,0000.0,0000.63,0000.39,0000.30
2023-01-10 12:08:00,,0817.6,5.00,0.00,22.1,21.0,00.0,30.9,23.9,16.6,0000.0,0000.63,0000.39,0000.30
2023-01-10 12:09:00,,0817.7,5.00,0.00,22.1,21.0,00.0,30.9,23.9,16.6,0000.0,0000.62,0000.38,0000.30
2023-01-10 12:10:00,,0817.9,5.00,0.00,22.1,21.0,00.0,30.9,23.9,16.6,0000.0,0000.61,0000.38,0000.30
2023-01-10 12:11:00,,0818.0,5.00,0.00,22.1,21.0,00.0,30.9,23.9,16.6,0000.0,0000.56,0000.37,0000.30
2023-01-10 12:12:00,,0817.9,5.00,0.00,22.1,21.0,00.0,30.9,23.9,16.6,0000.0,0000.52,0000.35,0000.30
2023-01-10 12:13:00,,0818.0,5.00,0.00,22.1,21.1,00.0,30.9,23.9,16.5,0000.0,0000.52,0000.35,0000.30
2023-01-10 12:14:00,,0817.9,5.01,0.00,22.1,21.1,00.0,30.9,23.9,16.3,0000.0,0000.58,0000.36,0000.31
2023-01-10 12:15:00,,0817.9,4.99,0.00,22.1,21.1,00.0,30.9,24.0,16.3,0000.0,0000.66,0000.39,0000.32
2023-01-10 12:16:00,,0817.7,4.99,0.00,22.1,21.1,00.0,31.0,24.0,16.3,0000.0,0000.63,0000.39,0000.33
2023-01-10 12:17:00,,0817.6,4.99,0.00,22.1,21.0,00.0,31.0,24.0,16.3,0000.0,0001.05,0000.41,0000.33
2023-01-10 12:18:00,,0817.7,5.01,0.00,22.1,20.9,00.0,31.0,23.9,16.2,0000.0,0001.11,0000.43,0000.34
2023-01-10 12:19:00,,0817.8,5.01,0.00,22.1,20.9,00.0,31.0,23.9,16.2,0000.0,0001.11,0000.43,0000.35
2023-01-10 12:20:00,,0817.8,4.99,0.00,22.1,20.9,00.0,31.0,23.9,16.3,0000.0,0001.10,0000.43,0000.35
2023-01-10 12:21:00,,0817.8,5.01,0.00,22.1,20.9,00.0,31.0,23.9,16.5,0000.0,0001.09,0000.43,0000.35
2023-01-10 12:22:00,,0817.8,5.00,0.00,22.1,20.9,00.0,31.0,23.9,16.5,0000.0,0001.12,0000.44,0000.36
2023-01-10 12:23:00,,0817.8,5.00,0.00,22.1,20.8,00.0,31.0,23.8,16.8,0000.0,0001.14,0000.44,0000.35
2023-01-10 12:24:00,,0817.7,5.00,0.00,22.1,20.8,00.0,31.0,23.8,16.7,0000.0,0001.14,0000.44,0000.35
2023-01-10 12:25:00,,0817.7,5.00,0.00,22.1,21.0,00.0,30.9,23.9,16.6,0000.0,0001.09,0000.42,0000.34
2023-01-10 12:26:00,,0817.8,4.99,0.00,22.2,21.9,00.0,30.9,24.1,16.4,0000.0,0001.00,0000.40,0000.34
2023-01-10 12:27:00,,0817.8,5.00,0.00,22.3,22.9,00.0,30.9,24.4,16.3,0000.0,0000.94,0000.41,0000.35
2023-01-10 12:28:00,,0817.8,4.99,0.00,22.4,22.8,00.0,31.0,24.5,16.2,0000.0,0000.57,0000.39,0000.34
2023-01-10 12:29:00,,0817.8,5.00,0.00,22.4,22.5,00.0,31.1,24.4,16.2,0000.0,0000.66,0000.39,0000.34
2023-01-10 12:30:00,,0817.8,5.00,0.00,22.4,22.2,00.0,31.1,24.4,16.3,0000.0,0000.68,0000.39,0000.34
2023-01-10 12:31:00,,0817.8,5.01,0.00,22.5,21.9,00.0,31.1,24.4,16.3,0000.0,0000.67,0000.38,0000.33
2023-01-10 12:32:00,,0817.9,5.01,0.00,22.5,21.8,00.0,31.2,24.3,16.3,0000.0,0000.67,0000.38,0000.32
2023-01-10 12:33:00,,0818.0,5.01,0.00,22.5,21.6,00.0,31.2,24.3,16.3,0000.0,0000.64,0000.36,0000.31
2023-01-10 12:34:00,,0818.0,5.00,0.00,22.5,21.5,00.0,31.2,24.3,16.3,0000.0,0000.62,0000.36,0000.31
2023-01-10 12:35:00,,0817.9,5.00,0.00,22.4,21.4,00.0,31.2,24.3,16.3,0000.0,0000.62,0000.36,0000.31
2023-01-10 12:36:00,,0817.9,5.00,0.00,22.5,21.3,00.0,31.2,24.3,16.3,0000.0,0000.60,0000.35,0000.31
2023-01-10 12:37:00,,0817.8,4.99,0.00,22.4,21.2,00.0,31.2,24.3,16.3,0000.0,0000.59,0000.35,0000.30
2023-01-10 12:38:00,,0817.8,5.00,0.00,22.4,21.2,00.0,31.3,24.2,16.1,0000.0,0000.77,0000.33,0000.29
2023-01-10 12:39:00,,0817.8,4.99,0.00,22.4,21.2,00.0,31.2,24.2,16.0,0000.0,0000.78,0000.33,0000.30
2023-01-10 12:40:00,,0817.7,5.02,0.00,22.4,21.1,00.0,31.2,24.2,16.2,0000.0,0000.67,0000.34,0000.29
2023-01-10 12:41:00,,0817.8,5.01,0.00,22.4,21.1,00.0,31.3,24.2,16.3,0000.0,0000.67,0000.34,0000.29
2023-01-10 12:42:00,,0817.7,5.00,0.00,22.4,21.1,00.0,31.3,24.2,16.4,0000.0,0000.73,0000.36,0000.29
2023-01-10 12:43:00,,0817.7,5.00,0.00,22.4,21.1,00.0,31.2,24.1,16.5,0000.0,0000.74,0000.36,0000.28
2023-01-10 12:44:00,,0817.7,5.00,0.00,22.4,21.1,00.0,31.2,24.1,16.5,0000.0,0000.74,0000.36,0000.28
2023-01-10 12:45:00,,0817.7,4.99,0.00,22.4,21.1,00.0,31.2,24.1,16.5,0000.0,0000.80,0000.36,0000.27
2023-01-10 12:46:00,,0817.6,5.00,0.00,22.4,21.0,00.0,31.2,24.1,16.5,0000.0,0000.79,0000.35,0000.26
2023-01-10 12:47:00,,0817.6,5.00,0.00,22.3,21.0,00.0,31.2,24.1,16.5,0000.0,0000.77,0000.34,0000.25
2023-01-10 12:48:00,,0817.6,5.00,0.00,22.3,21.0,00.0,31.2,24.1,16.6,0000.0,0000.79,0000.34,0000.25
2023-01-10 12:49:00,,0817.7,5.01,0.00,22.3,20.9,00.0,31.2,24.1,16.5,0000.0,0000.64,0000.34,0000.24
2023-01-10 12:50:00,,0817.7,5.00,0.00,22.3,21.0,00.0,31.2,24.1,16.5,0000.0,0000.56,0000.32,0000.23
2023-01-10 12:51:00,,0817.7,5.00,0.00,22.3,21.0,00.0,31.2,24.1,16.5,0000.0,0000.64,0000.31,0000.21
2023-01-10 12:52:00,,0817.6,4.99,0.00,22.3,21.0,00.0,31.2,24.1,16.6,0000.0,0000.62,0000.29,0000.20
2023-01-10 12:53:00,,0817.6,5.00,0.00,22.3,21.0,00.0,31.2,24.1,16.6,0000.0,0000.56,0000.26,0000.19
2023-01-10 12:54:00,,0817.6,5.00,0.00,22.3,20.9,00.0,31.2,24.1,16.4,0000.0,0000.53,0000.25,0000.20
2023-01-10 12:55:00,,0817.6,5.00,0.00,22.3,20.9,00.0,31.2,24.1,16.2,0000.0,0000.56,0000.27,0000.22
2023-01-10 12:56:00,,0817.7,5.00,0.00,22.3,20.9,00.0,31.2,24.1,16.4,0000.0,0000.52,0000.29,0000.24
2023-01-10 12:57:00,,0817.6,5.00,0.00,22.3,20.9,00.0,31.2,24.0,16.5,0000.0,0000.56,0000.31,0000.26
2023-01-10 12:58:00,,0817.6,5.01,0.00,22.3,20.9,00.0,31.2,24.1,16.5,0000.0,0000.60,0000.33,0000.27
2023-01-10 12:59:00,,0817.6,5.00,0.00,22.3,20.9,00.0,31.2,24.0,16.5,0000.0,0000.58,0000.33,0000.27
